QPF
0.04 0.05 0.05 0.05 0.04 0.04 0.05 0.05 0.05 0.06 0.06 0.06 0.07 0.08 0.09 0.09 0.09 0.08 0.09 0.09 0.08 0.08 0.07 0.06 0.06 0.06 0.08 0.09 0.10 0.09 0.08 0.08 0.09 0.09 0.09 0.07 0.05 0.04 0.04 0.04 0.05 0.05 0.04
0.03 0.03 0.05 0.05 0.05 0.06 0.06 0.06 0.05 0.05 0.06 0.07 0.08 0.08 0.08 0.08 0.08 0.08 0.08 0.08 0.08 0.08 0.06 0.06 0.05 0.05 0.06 0.06 0.07 0.08 0.08 0.08 0.08 0.09 0.09 0.08 0.07 0.05 0.03 0.02 0.02 0.02 0.03
0.02 0.02 0.04 0.05 0.04 0.04 0.04 0.05 0.05 0.04 0.05 0.05 0.06 0.07 0.08 0.06 0.06 0.07 0.07 0.07 0.07 0.07 0.07 0.06 0.07 0.07 0.06 0.06 0.06 0.08 0.09 0.09 0.09 0.08 0.09 0.08 0.08 0.06 0.05 0.04 0.03 0.03 0.04
0.02 0.02 0.02 0.03 0.02 0.02 0.03 0.04 0.04 0.04 0.04 0.04 0.04 0.06 0.07 0.07 0.07 0.08 0.06 0.06 0.05 0.06 0.04 0.04 0.04 0.04 0.04 0.04 0.05 0.05 0.07 0.09 0.10 0.09 0.08 0.07 0.06 0.06 0.05 0.04 0.03 0.03 0.03
0.02 0.02 0.03 0.02 0.02 0.02 0.02 0.02 0.03 0.03 0.03 0.03 0.03 0.05 0.06 0.07 0.06 0.05 0.05 0.05 0.05 0.04 0.04 0.04 0.03 0.03 0.04 0.05 0.05 0.05 0.06 0.07 0.07 0.08 0.07 0.08 0.08 0.07 0.06 0.05 0.05 0.05 0.03
0.02 0.02 0.02 0.02 0.02 0.02 0.02 0.01 0.02 0.02 0.03 0.03 0.03 0.06 0.07 0.07 0.06 0.05 0.04 0.04 0.04 0.04 0.06 0.05 0.04 0.03 0.03 0.04 0.05 0.07 0.07 0.07 0.06 0.06 0.06 0.07 0.08 0.09 0.09 0.07 0.07 0.06 0.07
0.01 0.01 0.01 0.01 0.01 0.02 0.01 0.01 0.01 0.02 0.04 0.04 0.06 0.08 0.09 0.07 0.05 0.04 0.04 0.04 0.03 0.03 0.04 0.04 0.04 0.04 0.04 0.04 0.04 0.06 0.06 0.06 0.07 0.07 0.07 0.08 0.08 0.07 0.08 0.10 0.09 0.06 0.07
0.00 0.01 0.01 0.01 0.02 0.02 0.02 0.01 0.02 0.03 0.04 0.05 0.07 0.09 0.09 0.08 0.06 0.04 0.04 0.04 0.03 0.03 0.04 0.05 0.05 0.05 0.05 0.05 0.04 0.04 0.04 0.04 0.05 0.06 0.07 0.07 0.06 0.07 0.07 0.08 0.10 0.08 0.05
0.00 0.00 0.00 0.01 0.01 0.01 0.02 0.01 0.02 0.04 0.06 0.06 0.07 0.08 0.09 0.09 0.05 0.03 0.03 0.03 0.03 0.03 0.04 0.04 0.04 0.04 0.05 0.05 0.05 0.05 0.04 0.04 0.04 0.04 0.04 0.05 0.04 0.04 0.04 0.05 0.07 0.09 0.08
0.00 0.00 0.00 0.01 0.02 0.02 0.02 0.02 0.04 0.06 0.06 0.08 0.10 0.09 0.08 0.06 0.05 0.04 0.03 0.03 0.03 0.03 0.03 0.03 0.04 0.04 0.05 0.06 0.06 0.05 0.05 0.05 0.05 0.04 0.03 0.03 0.03 0.02 0.02 0.03 0.04 0.05 0.07
0.00 0.00 0.01 0.01 0.02 0.02 0.02 0.03 0.05 0.06 0.06 0.05 0.06 0.08 0.07 0.05 0.04 0.04 0.03 0.02 0.03 0.03 0.03 0.03 0.04 0.05 0.05 0.06 0.06 0.05 0.05 0.06 0.06 0.05 0.04 0.03 0.02 0.02 0.02 0.02 0.03 0.04 0.05
0.00 0.01 0.01 0.01 0.01 0.02 0.02 0.03 0.04 0.04 0.04 0.04 0.04 0.04 0.04 0.04 0.03 0.04 0.03 0.02 0.02 0.02 0.03 0.04 0.05 0.06 0.07 0.06 0.05 0.04 0.04 0.06 0.07 0.06 0.05 0.04 0.02 0.02 0.03 0.03 0.03 0.03 0.04
0.01 0.01 0.02 0.02 0.02 0.02 0.03 0.04 0.03 0.03 0.03 0.03 0.02 0.02 0.02 0.02 0.02 0.03 0.02 0.02 0.02 0.03 0.03 0.03 0.04 0.06 0.06 0.07 0.06 0.04 0.04 0.05 0.06 0.05 0.04 0.04 0.03 0.03 0.03 0.03 0.04 0.04 0.03
0.01 0.02 0.03 0.02 0.02 0.03 0.04 0.04 0.04 0.03 0.03 0.03 0.02 0.02 0.02 0.02 0.02 0.02 0.03 0.02 0.03 0.03 0.03 0.03 0.04 0.05 0.05 0.04 0.04 0.04 0.04 0.05 0.05 0.05 0.05 0.04 0.03 0.03 0.04 0.04 0.04 0.04 0.04
0.02 0.02 0.02 0.02 0.03 0.02 0.02 0.02 0.02 0.03 0.03 0.03 0.02 0.01 0.02 0.03 0.03 0.03 0.03 0.02 0.02 0.02 0.02 0.02 0.03 0.04 0.03 0.03 0.04 0.05 0.04 0.05 0.06 0.06 0.05 0.04 0.03 0.03 0.03 0.03 0.03 0.04 0.05
0.02 0.02 0.03 0.03 0.03 0.03 0.03 0.03 0.03 0.02 0.02 0.02 0.02 0.02 0.04 0.05 0.04 0.03 0.04 0.04 0.04 0.04 0.03 0.03 0.04 0.04 0.03 0.04 0.04 0.06 0.05 0.04 0.05 0.06 0.06 0.04 0.03 0.03 0.02 0.02 0.02 0.02 0.03
0.02 0.03 0.03 0.03 0.03 0.03 0.03 0.04 0.04 0.03 0.02 0.03 0.02 0.02 0.04 0.06 0.05 0.04 0.04 0.05 0.05 0.05 0.04 0.03 0.03 0.04 0.03 0.04 0.04 0.06 0.05 0.04 0.04 0.04 0.03 0.03 0.03 0.03 0.03 0.03 0.03 0.02 0.02
0.03 0.03 0.03 0.04 0.04 0.03 0.03 0.04 0.04 0.03 0.03 0.03 0.03 0.03 0.04 0.05 0.04 0.04 0.03 0.04 0.04 0.04 0.03 0.01 0.01 0.02 0.03 0.03 0.03 0.03 0.03 0.03 0.03 0.03 0.03 0.03 0.03 0.02 0.03 0.03 0.04 0.03 0.02
0.03 0.03 0.04 0.05 0.04 0.04 0.04 0.04 0.03 0.02 0.03 0.04 0.04 0.04 0.04 0.04 0.03 0.03 0.02 0.02 0.02 0.03 0.02 0.02 0.02 0.02 0.04 0.03 0.02 0.02 0.02 0.02 0.02 0.02 0.02 0.02 0.02 0.02 0.01 0.02 0.02 0.02 0.02
0.06 0.05 0.04 0.05 0.05 0.03 0.04 0.03 0.03 0.03 0.04 0.06 0.05 0.05 0.05 0.04 0.03 0.02 0.02 0.02 0.02 0.02 0.02 0.02 0.03 0.04 0.04 0.03 0.02 0.01 0.01 0.02 0.02 0.03 0.03 0.03 0.02 0.02 0.02 0.02 0.03 0.03 0.02
0.07 0.06 0.05 0.04 0.03 0.03 0.03 0.03 0.04 0.03 0.04 0.05 0.04 0.04 0.05 0.04 0.02 0.02 0.01 0.02 0.02 0.02 0.02 0.03 0.02 0.02 0.02 0.01 0.01 0.00 0.01 0.01 0.02 0.02 0.02 0.02 0.02 0.01 0.01 0.02 0.02 0.02 0.02
0.05 0.04 0.03 0.03 0.02 0.03 0.03 0.02 0.03 0.03 0.03 0.03 0.03 0.02 0.02 0.02 0.01 0.01 0.01 0.01 0.01 0.01 0.02 0.02 0.02 0.01 0.01 0.01 0.00 0.00 0.00 0.00 0.01 0.01 0.01 0.01 0.01 0.01 0.01 0.01 0.01 0.01 0.01
0.03 0.02 0.02 0.02 0.02 0.03 0.03 0.02 0.02 0.02 0.02 0.02 0.02 0.02 0.01 0.01 0.01 0.01 0.01 0.01 0.01 0.01 0.01 0.01 0.02 0.01 0.01 0.01 0.01 0.01 0.01 0.01 0.01 0.01 0.01 0.01 0.01 0.01 0.02 0.02 0.02 0.02 0.03
0.01 0.01 0.01 0.01 0.02 0.02 0.03 0.02 0.02 0.02 0.02 0.02 0.01 0.01 0.01 0.01 0.01 0.01 0.01 0.01 0.01 0.01 0.01 0.02 0.02 0.01 0.01 0.01 0.01 0.02 0.01 0.01 0.01 0.01 0.01 0.01 0.01 0.00 0.01 0.01 0.02 0.03 0.04
0.01 0.01 0.01 0.01 0.02 0.02 0.03 0.02 0.02 0.02 0.02 0.02 0.01 0.01 0.01 0.01 0.00 0.01 0.01 0.01 0.01 0.01 0.01 0.01 0.01 0.01 0.01 0.01 0.01 0.01 0.01 0.02 0.01 0.01 0.01 0.02 0.01 0.01 0.02 0.02 0.03 0.03 0.04
0.01 0.02 0.02 0.02 0.03 0.03 0.03 0.03 0.01 0.01 0.03 0.03 0.02 0.02 0.01 0.01 0.01 0.01 0.01 0.01 0.01 0.00 0.00 0.01 0.01 0.01 0.01 0.01 0.01 0.02 0.02 0.01 0.01 0.01 0.01 0.02 0.02 0.02 0.02 0.03 0.03 0.03 0.04
MSLP
1015.20 1015.34 1015.31 1015.14 1014.89 1014.62 1014.34 1014.10 1013.88 1013.66 1013.44 1013.20 1012.94 1012.65 1012.37 1012.10 1011.86 1011.66 1011.48 1011.32 1011.13 1010.92 1010.66 1010.38 1010.08 1009.81 1009.59 1009.47 1009.45 1009.54 1009.70 1009.91 1010.12 1010.29 1010.40 1010.42 1010.36 1010.25 1010.12 1009.98 1009.88 1009.82 1009.82
1016.15 1016.25 1016.15 1015.91 1015.59 1015.24 1014.91 1014.62 1014.37 1014.15 1013.93 1013.70 1013.46 1013.18 1012.91 1012.64 1012.38 1012.16 1011.95 1011.74 1011.52 1011.25 1010.94 1010.58 1010.21 1009.84 1009.52 1009.29 1009.16 1009.14 1009.23 1009.38 1009.55 1009.72 1009.84 1009.90 1009.89 1009.82 1009.71 1009.58 1009.47 1009.38 1009.34
1016.86 1016.92 1016.77 1016.47 1016.09 1015.69 1015.32 1015.01 1014.76 1014.54 1014.36 1014.16 1013.96 1013.72 1013.48 1013.23 1012.98 1012.75 1012.52 1012.28 1012.01 1011.70 1011.33 1010.91 1010.46 1010.00 1009.57 1009.22 1008.97 1008.84 1008.81 1008.88 1009.00 1009.14 1009.26 1009.35 1009.37 1009.34 1009.26 1009.16 1009.05 1008.95 1008.86
1017.29 1017.32 1017.14 1016.80 1016.39 1015.96 1015.58 1015.26 1015.02 1014.84 1014.69 1014.56 1014.40 1014.23 1014.03 1013.81 1013.58 1013.35 1013.11 1012.84 1012.55 1012.20 1011.78 1011.31 1010.79 1010.25 1009.73 1009.27 1008.90 1008.64 1008.50 1008.47 1008.52 1008.61 1008.71 1008.79 1008.84 1008.84 1008.80 1008.72 1008.62 1008.51 1008.40
1017.46 1017.47 1017.27 1016.93 1016.51 1016.08 1015.70 1015.40 1015.18 1015.04 1014.95 1014.87 1014.78 1014.66 1014.51 1014.32 1014.12 1013.88 1013.63 1013.35 1013.02 1012.65 1012.20 1011.70 1011.14 1010.55 1009.96 1009.42 1008.96 1008.59 1008.34 1008.20 1008.16 1008.18 1008.23 1008.29 1008.34 1008.36 1008.33 1008.27 1008.18 1008.08 1007.96
1017.39 1017.40 1017.22 1016.90 1016.50 1016.10 1015.75 1015.47 1015.29 1015.18 1015.13 1015.10 1015.06 1014.99 1014.87 1014.71 1014.51 1014.27 1014.00 1013.70 1013.36 1012.97 1012.52 1012.00 1011.43 1010.83 1010.22 1009.64 1009.11 1008.67 1008.33 1008.09 1007.95 1007.88 1007.87 1007.88 1007.90 1007.92 1007.90 1007.85 1007.77 1007.66 1007.53
1017.15 1017.18 1017.04 1016.76 1016.42 1016.07 1015.75 1015.51 1015.36 1015.28 1015.26 1015.26 1015.24 1015.19 1015.09 1014.93 1014.72 1014.46 1014.17 1013.85 1013.49 1013.10 1012.65 1012.16 1011.62 1011.05 1010.46 1009.88 1009.33 1008.84 1008.43 1008.11 1007.88 1007.73 1007.64 1007.59 1007.57 1007.56 1007.53 1007.48 1007.40 1007.28 1007.14
1016.79 1016.86 1016.78 1016.58 1016.31 1016.02 1015.75 1015.54 1015.42 1015.36 1015.34 1015.34 1015.33 1015.28 1015.16 1014.98 1014.74 1014.46 1014.14 1013.79 1013.42 1013.02 1012.61 1012.16 1011.68 1011.16 1010.63 1010.09 1009.57 1009.07 1008.63 1008.25 1007.95 1007.72 1007.55 1007.43 1007.36 1007.30 1007.26 1007.19 1007.10 1006.98 1006.82
1016.38 1016.51 1016.51 1016.40 1016.21 1015.98 1015.77 1015.59 1015.48 1015.42 1015.39 1015.38 1015.34 1015.26 1015.11 1014.90 1014.62 1014.29 1013.93 1013.56 1013.18 1012.80 1012.42 1012.03 1011.62 1011.20 1010.74 1010.28 1009.80 1009.33 1008.88 1008.47 1008.12 1007.82 1007.58 1007.40 1007.28 1007.18 1007.10 1007.02 1006.91 1006.77 1006.60
1015.98 1016.18 1016.26 1016.24 1016.12 1015.97 1015.80 1015.64 1015.54 1015.46 1015.41 1015.36 1015.29 1015.17 1014.98 1014.72 1014.40 1014.04 1013.65 1013.25 1012.87 1012.50 1012.16 1011.84 1011.51 1011.17 1010.81 1010.43 1010.02 1009.59 1009.16 1008.74 1008.35 1008.01 1007.72 1007.50 1007.32 1007.19 1007.08 1006.97 1006.84 1006.69 1006.50
1015.61 1015.88 1016.05 1016.10 1016.06 1015.96 1015.83 1015.69 1015.58 1015.48 1015.40 1015.32 1015.21 1015.05 1014.82 1014.53 1014.18 1013.78 1013.37 1012.96 1012.58 1012.24 1011.93 1011.66 1011.40 1011.15 1010.87 1010.56 1010.22 1009.84 1009.43 1009.02 1008.62 1008.26 1007.94 1007.68 1007.48 1007.32 1007.18 1007.06 1006.91 1006.74 1006.53
1015.30 1015.64 1015.87 1015.99 1016.01 1015.95 1015.84 1015.71 1015.58 1015.46 1015.36 1015.25 1015.11 1014.92 1014.68 1014.37 1014.01 1013.61 1013.19 1012.78 1012.41 1012.08 1011.81 1011.57 1011.37 1011.17 1010.95 1010.70 1010.41 1010.07 1009.69 1009.30 1008.90 1008.53 1008.20 1007.92 1007.70 1007.53 1007.38 1007.24 1007.09 1006.90 1006.68
1015.04 1015.43 1015.72 1015.88 1015.94 1015.90 1015.81 1015.68 1015.54 1015.41 1015.29 1015.16 1015.01 1014.82 1014.58 1014.28 1013.93 1013.54 1013.14 1012.75 1012.39 1012.08 1011.82 1011.61 1011.43 1011.26 1011.08 1010.86 1010.59 1010.28 1009.92 1009.54 1009.15 1008.79 1008.46 1008.18 1007.96 1007.79 1007.64 1007.50 1007.34 1007.15 1006.92
1014.83 1015.26 1015.58 1015.77 1015.85 1015.82 1015.73 1015.60 1015.46 1015.32 1015.19 1015.06 1014.92 1014.75 1014.53 1014.26 1013.94 1013.59 1013.22 1012.85 1012.51 1012.21 1011.96 1011.76 1011.58 1011.41 1011.23 1011.02 1010.76 1010.45 1010.10 1009.74 1009.36 1009.01 1008.69 1008.42 1008.21 1008.04 1007.90 1007.76 1007.61 1007.42 1007.18
1014.64 1015.10 1015.44 1015.64 1015.72 1015.69 1015.60 1015.46 1015.32 1015.19 1015.07 1014.96 1014.84 1014.70 1014.52 1014.29 1014.02 1013.70 1013.37 1013.03 1012.71 1012.42 1012.17 1011.96 1011.76 1011.58 1011.38 1011.16 1010.89 1010.58 1010.24 1009.88 1009.51 1009.17 1008.86 1008.61 1008.41 1008.25 1008.12 1007.99 1007.84 1007.66 1007.44
1014.48 1014.94 1015.28 1015.48 1015.55 1015.53 1015.43 1015.30 1015.16 1015.04 1014.94 1014.85 1014.76 1014.65 1014.52 1014.33 1014.10 1013.83 1013.53 1013.22 1012.91 1012.63 1012.37 1012.14 1011.93 1011.72 1011.50 1011.26 1010.98 1010.66 1010.32 1009.96 1009.60 1009.27 1008.98 1008.74 1008.54 1008.39 1008.26 1008.14 1008.00 1007.83 1007.61
1014.31 1014.78 1015.10 1015.30 1015.36 1015.34 1015.25 1015.13 1015.01 1014.90 1014.82 1014.76 1014.69 1014.62 1014.51 1014.36 1014.16 1013.92 1013.64 1013.35 1013.05 1012.76 1012.50 1012.25 1012.02 1011.80 1011.56 1011.30 1011.01 1010.69 1010.35 1010.00 1009.65 1009.33 1009.04 1008.80 1008.61 1008.46 1008.33 1008.20 1008.06 1007.89 1007.68
1014.14 1014.59 1014.91 1015.10 1015.17 1015.15 1015.08 1014.98 1014.88 1014.79 1014.73 1014.69 1014.64 1014.58 1014.49 1014.36 1014.17 1013.94 1013.67 1013.37 1013.08 1012.78 1012.50 1012.25 1012.01 1011.78 1011.54 1011.28 1011.00 1010.69 1010.36 1010.02 1009.68 1009.36 1009.08 1008.83 1008.62 1008.45 1008.30 1008.16 1008.01 1007.83 1007.62
1013.97 1014.40 1014.71 1014.90 1014.98 1014.98 1014.93 1014.86 1014.78 1014.73 1014.68 1014.66 1014.62 1014.56 1014.47 1014.32 1014.13 1013.88 1013.60 1013.29 1012.98 1012.68 1012.40 1012.14 1011.91 1011.68 1011.46 1011.22 1010.96 1010.68 1010.37 1010.04 1009.71 1009.39 1009.10 1008.83 1008.60 1008.39 1008.21 1008.04 1007.85 1007.65 1007.43
1013.80 1014.21 1014.51 1014.71 1014.81 1014.84 1014.82 1014.79 1014.75 1014.71 1014.69 1014.66 1014.62 1014.55 1014.44 1014.27 1014.04 1013.77 1013.46 1013.14 1012.82 1012.50 1012.22 1011.98 1011.76 1011.56 1011.36 1011.15 1010.93 1010.68 1010.40 1010.09 1009.76 1009.44 1009.12 1008.82 1008.54 1008.30 1008.06 1007.84 1007.62 1007.38 1007.13
1013.63 1014.03 1014.33 1014.54 1014.67 1014.73 1014.75 1014.75 1014.74 1014.73 1014.72 1014.69 1014.64 1014.55 1014.41 1014.20 1013.94 1013.64 1013.30 1012.95 1012.61 1012.30 1012.02 1011.79 1011.59 1011.42 1011.26 1011.10 1010.91 1010.69 1010.43 1010.14 1009.82 1009.48 1009.14 1008.80 1008.47 1008.16 1007.87 1007.60 1007.32 1007.04 1006.76
1013.49 1013.87 1014.17 1014.40 1014.55 1014.65 1014.71 1014.74 1014.76 1014.77 1014.76 1014.73 1014.66 1014.55 1014.37 1014.14 1013.84 1013.51 1013.14 1012.78 1012.43 1012.11 1011.84 1011.62 1011.45 1011.31 1011.18 1011.05 1010.90 1010.70 1010.46 1010.18 1009.85 1009.49 1009.11 1008.73 1008.35 1007.99 1007.64 1007.31 1006.99 1006.67 1006.36
1013.37 1013.74 1014.05 1014.28 1014.46 1014.58 1014.67 1014.72 1014.76 1014.78 1014.77 1014.73 1014.65 1014.51 1014.31 1014.05 1013.73 1013.38 1013.00 1012.62 1012.27 1011.96 1011.70 1011.50 1011.34 1011.22 1011.12 1011.00 1010.86 1010.68 1010.44 1010.15 1009.80 1009.42 1009.01 1008.59 1008.17 1007.76 1007.37 1007.00 1006.64 1006.29 1005.94
1013.28 1013.64 1013.95 1014.20 1014.38 1014.51 1014.60 1014.67 1014.71 1014.73 1014.71 1014.66 1014.56 1014.41 1014.20 1013.92 1013.60 1013.24 1012.86 1012.49 1012.14 1011.84 1011.59 1011.40 1011.25 1011.13 1011.02 1010.91 1010.76 1010.57 1010.32 1010.01 1009.64 1009.24 1008.81 1008.36 1007.91 1007.48 1007.06 1006.66 1006.29 1005.92 1005.57
1013.22 1013.58 1013.88 1014.12 1014.29 1014.42 1014.51 1014.56 1014.59 1014.59 1014.56 1014.49 1014.38 1014.21 1014.00 1013.72 1013.40 1013.05 1012.69 1012.34 1012.01 1011.72 1011.48 1011.29 1011.13 1011.00 1010.88 1010.74 1010.56 1010.34 1010.06 1009.73 1009.35 1008.92 1008.48 1008.02 1007.57 1007.14 1006.72 1006.34 1005.96 1005.61 1005.27
1013.17 1013.52 1013.80 1014.02 1014.18 1014.29 1014.35 1014.37 1014.37 1014.35 1014.29 1014.20 1014.08 1013.90 1013.69 1013.42 1013.12 1012.80 1012.46 1012.13 1011.83 1011.56 1011.32 1011.12 1010.96 1010.80 1010.64 1010.46 1010.25 1009.99 1009.67 1009.32 1008.91 1008.48 1008.04 1007.60 1007.18 1006.77 1006.40 1006.04 1005.71 1005.39 1005.06
Thickness
5748 5745 5740 5737 5734 5730 5726 5724 5721 5717 5715 5713 5710 5708 5705 5702 5700 5697 5693 5690 5688 5686 5685 5684 5681 5680 5679 5677 5676 5675 5675 5675 5674 5673 5674 5676 5677 5676 5675 5676 5676 5676 5676
5741 5737 5733 5731 5727 5724 5721 5719 5716 5713 5711 5708 5705 5703 5699 5696 5693 5690 5686 5683 5681 5679 5679 5676 5676 5674 5671 5670 5669 5667 5667 5668 5667 5664 5664 5666 5668 5667 5670 5669 5669 5669 5669
5736 5732 5729 5726 5723 5720 5717 5715 5711 5708 5705 5703 5701 5697 5692 5689 5686 5683 5680 5677 5675 5673 5670 5668 5668 5666 5665 5663 5661 5660 5659 5658 5659 5658 5656 5655 5657 5659 5663 5661 5662 5661 5662
5733 5729 5725 5722 5719 5717 5714 5710 5707 5703 5700 5697 5694 5690 5685 5681 5678 5675 5673 5670 5667 5665 5663 5661 5660 5658 5658 5656 5655 5654 5652 5650 5650 5650 5648 5647 5647 5645 5650 5653 5654 5653 5653
5730 5725 5721 5717 5715 5712 5710 5706 5701 5697 5694 5692 5688 5684 5680 5676 5672 5668 5664 5662 5660 5658 5656 5654 5653 5651 5651 5649 5647 5646 5644 5644 5643 5642 5641 5639 5638 5638 5637 5640 5642 5644 5646
5725 5722 5718 5713 5709 5708 5705 5701 5696 5691 5688 5685 5681 5677 5672 5667 5663 5660 5657 5655 5654 5652 5650 5648 5646 5645 5644 5642 5640 5638 5638 5636 5635 5634 5634 5633 5632 5632 5631 5631 5633 5635 5638
5720 5716 5712 5708 5704 5702 5699 5696 5691 5686 5682 5678 5674 5670 5665 5661 5657 5653 5651 5649 5648 5646 5643 5641 5638 5638 5636 5634 5633 5631 5631 5629 5627 5627 5627 5627 5626 5626 5625 5625 5625 5627 5630
5715 5711 5707 5703 5699 5696 5692 5689 5686 5681 5677 5672 5667 5663 5659 5656 5652 5648 5645 5643 5642 5640 5636 5634 5632 5630 5629 5628 5626 5625 5624 5623 5621 5621 5620 5620 5621 5620 5619 5618 5617 5618 5622
5708 5705 5702 5698 5694 5690 5686 5683 5679 5675 5671 5666 5661 5656 5652 5649 5646 5642 5639 5638 5635 5634 5631 5628 5626 5624 5622 5621 5619 5619 5617 5616 5616 5616 5615 5614 5615 5614 5614 5613 5612 5610 5611
5701 5698 5696 5692 5689 5685 5682 5678 5674 5669 5665 5661 5656 5652 5647 5643 5640 5638 5633 5631 5629 5628 5625 5622 5620 5618 5616 5614 5613 5613 5612 5610 5610 5609 5608 5607 5608 5607 5607 5607 5607 5606 5605
5695 5693 5690 5688 5685 5682 5678 5673 5669 5665 5660 5656 5651 5646 5643 5639 5635 5632 5629 5627 5624 5622 5620 5617 5615 5612 5610 5608 5607 5607 5606 5605 5604 5604 5603 5602 5601 5601 5602 5602 5601 5601 5600
5690 5688 5685 5682 5679 5677 5673 5669 5665 5661 5656 5651 5647 5642 5638 5634 5631 5628 5625 5623 5619 5617 5615 5613 5610 5608 5606 5604 5602 5601 5601 5600 5599 5599 5598 5597 5597 5595 5595 5595 5594 5594 5594
5684 5682 5679 5676 5674 5671 5669 5665 5661 5656 5652 5648 5643 5637 5633 5630 5627 5624 5621 5618 5615 5613 5611 5608 5606 5603 5601 5599 5598 5597 5596 5595 5595 5594 5593 5592 5591 5590 5590 5588 5589 5589 5590
5678 5676 5673 5670 5669 5666 5664 5661 5656 5652 5647 5643 5638 5634 5629 5626 5623 5620 5617 5614 5611 5609 5607 5605 5602 5600 5598 5596 5595 5594 5592 5591 5591 5590 5589 5588 5586 5585 5585 5584 5583 5584 5584
5671 5669 5666 5665 5663 5661 5659 5656 5652 5648 5643 5639 5634 5631 5626 5623 5620 5616 5613 5610 5608 5606 5604 5602 5600 5597 5594 5592 5589 5588 5588 5587 5586 5586 5585 5583 5581 5579 5578 5579 5579 5579 5579
5666 5663 5661 5659 5657 5655 5653 5651 5648 5643 5639 5635 5632 5628 5624 5620 5617 5614 5611 5608 5605 5602 5600 5598 5596 5593 5591 5585 5581 5580 5581 5582 5582 5581 5580 5579 5577 5575 5572 5571 5570 5570 5572
5660 5659 5656 5654 5653 5652 5650 5647 5644 5640 5636 5632 5629 5625 5622 5618 5615 5612 5609 5605 5602 5599 5596 5594 5592 5590 5585 5580 5577 5575 5575 5577 5577 5576 5575 5576 5575 5572 5572 5569 5566 5566 5564
5656 5655 5653 5651 5650 5649 5647 5645 5642 5638 5634 5630 5627 5624 5620 5616 5613 5609 5606 5603 5600 5596 5594 5592 5590 5587 5582 5576 5574 5572 5573 5574 5573 5572 5571 5570 5569 5568 5565 5566 5567 5566 5565
5653 5651 5650 5648 5647 5646 5645 5642 5639 5636 5632 5629 5625 5622 5618 5614 5610 5607 5604 5601 5598 5595 5593 5590 5589 5586 5581 5575 5572 5568 5572 5572 5571 5570 5569 5567 5565 5560 5558 5560 5562 5562 5562
5649 5648 5647 5645 5644 5643 5642 5640 5637 5633 5630 5627 5624 5621 5617 5612 5609 5606 5602 5600 5596 5594 5592 5590 5587 5584 5581 5574 5570 5566 5571 5571 5570 5569 5567 5563 5560 5556 5554 5556 5557 5558 5559
5646 5646 5645 5642 5641 5640 5639 5636 5635 5631 5628 5626 5623 5618 5614 5611 5608 5604 5601 5599 5596 5593 5590 5588 5586 5583 5579 5574 5569 5565 5567 5568 5568 5568 5567 5564 5557 5553 5551 5550 5552 5553 5552
5643 5643 5642 5640 5640 5639 5637 5635 5632 5630 5627 5624 5620 5617 5613 5610 5608 5603 5600 5598 5594 5592 5590 5587 5585 5584 5580 5574 5570 5565 5562 5560 5563 5564 5564 5561 5554 5551 5549 5550 5550 5548 5547
5641 5641 5640 5639 5638 5637 5635 5633 5630 5628 5625 5621 5618 5615 5612 5609 5606 5602 5600 5597 5594 5593 5591 5588 5586 5584 5581 5576 5569 5565 5561 5559 5559 5561 5558 5555 5552 5550 5552 5551 5549 5547 5550
5639 5640 5639 5638 5636 5636 5634 5632 5629 5626 5623 5620 5617 5614 5611 5608 5605 5602 5600 5597 5594 5592 5590 5587 5584 5582 5579 5576 5572 5569 5565 5561 5560 5560 5558 5555 5554 5552 5552 5553 5553 5552 5551
5638 5638 5638 5637 5636 5635 5633 5632 5629 5626 5622 5619 5616 5614 5612 5609 5604 5601 5597 5594 5591 5587 5583 5583 5581 5578 5575 5570 5561 5560 5562 5560 5558 5554 5557 5560 5560 5559 5558 5557 5554 5552 5551
5638 5638 5637 5637 5636 5635 5633 5632 5629 5626 5622 5619 5616 5615 5613 5609 5606 5602 5599 5593 5589 5584 5580 5575 5572 5572 5568 5563 5560 5557 5554 5552 5549 5551 5558 5559 5558 5557 5556 5553 5552 5550 5548